Simultaneous Nadir Overpasses (SNOs) Predictions

Prediction of SNOs between GOES-15 and TERRA Satellite Orbit:

Table of predicted SNOs for the next 14.0 days since TLE Epoch: 7/13/2014
Index Date Time (GOES-15) GOES-15 Lat,Lon TERRA Lat,Lon Distance(km) Time Diff (sec)
1 07/14/2014 19:25:09 0.00,-135.16 -0.23,-134.08 123.07 80
2 07/15/2014 07:49:12 -0.03,-135.11 -0.90,-139.26 471.09 80
3 07/16/2014 19:12:54 -0.00,-135.10 -0.85,-131.10 454.24 80
4 07/17/2014 07:36:57 -0.02,-135.05 -0.29,-136.28 139.98 80
5 07/19/2014 07:22:02 -0.02,-134.99 0.35,-133.31 190.83 80
6 07/19/2014 19:45:56 0.04,-135.00 0.77,-138.46 393.29 80
7 07/21/2014 19:33:40 0.04,-134.93 0.18,-135.48 62.99 80
8 07/23/2014 19:18:45 0.03,-134.86 -0.48,-132.51 267.04 80
9 07/24/2014 07:42:47
